Regional Weather Roundup
Issued by NWS

Home | Current Version | Previous Version | Graphics & Text | Print | Product List | Glossary On
Versions: 1 2 3 4 5 6 7 8 9 10 11 12 13 14 15 16 17 18 19 20 21 22 23 24 25 26 27 28 29 30 31 32 33 34 35 36 37 38 39 40 41 42 43 44 45 46 47 48 49 50
000
ASUS43 KDMX 210501
RWRIA

WEATHER ROUNDUP FOR IOWA
NATIONAL WEATHER SERVICE DES MOINES IA
1100 PM CST FRI JAN 20 2017

NOTE: "FAIR" INDICATES FEW OR NO CLOUDS BELOW 12,000 FEET WITH NO
SIGNIFICANT WEATHER AND/OR OBSTRUCTIONS TO VISIBILITY.

* - THESE STATIONS ARE NOT NWS STATIONS...THUS NOT UNDER NWS
QUALITY CONTROL.  THEY ALSO DO NOT REPORT WEATHER SUCH
AS PRECIPITATION OR FOG.

IAZ001>003-012>014-020>022-031>034-043>046-210600-
   NORTHWEST IOWA

CITY           SKY/WX    TMP DP  RH WIND       PRES   REMARKS
CARROLL *      FOG       37  36  93 SE7       29.44F VSB 1/4 WCI  32
CHEROKEE *     CLOUDY    36  36 100 CALM      29.45S
DENISON *      CLOUDY    39  39 100 CALM      29.41F FOG
LE MARS *      CLOUDY    37  37 100 SE6       29.43F WCI  33
ORANGE CITY *  CLOUDY    36  36 100 SE7       29.43S FOG     WCI  30
SHELDON *      FOG       36  36 100 SE9       29.42F VSB 3/4 WCI  29
SIOUX CITY     CLOUDY    39  38  96 SE7       29.41F FOG     WCI  34
SPENCER        CLOUDY    35  35 100 E9        29.46F FOG     WCI  28
STORM LAKE *   FOG       36  36 100 SE8       29.44F VSB<1/4 WCI  29
$$

IAZ055>058-069>071-079>083-090>094-210600-
   SOUTHWEST IOWA

CITY           SKY/WX    TMP DP  RH WIND       PRES   REMARKS
ATLANTIC *     LGT RAIN  41  41 100 CALM      29.42F
AUDUBON *      LGT RAIN  37  36  93 SE3       29.44F VSB 1/2
CLARINDA *     CLOUDY    41  41 100 S5        29.45S FOG
COUNCIL BLFS * MIX PCPN  39  39 100 SE5       29.41S VSB<1/4
CRESTON *      FOG       41  41 100 S6        29.44S VSB<1/4
HARLAN  *      FOG       39  39 100 CALM      29.45F VSB 1/4
LAMONI         FOG       45  45 100 S6        29.44S VSB 1/4
RED OAK *      LGT RAIN  41  41 100 CALM      29.42F VSB 1/2
SHENANDOAH *   LGT RAIN  43  43 100 E5        29.43F
$$

IAZ047>049-059>061-072>074-084-210600-
   CENTRAL IOWA

CITY           SKY/WX    TMP DP  RH WIND       PRES   REMARKS
AMES           FOG       38  38 100 E6        29.47F VSB 3/4 WCI  33
ANKENY *       FOG       39  39 100 SE7       29.47F VSB 1   WCI  34
BOONE *        FOG       37  37 100 E9        29.45F VSB<1/4 WCI  31
CHARITON *     FOG       43  43 100 SE10      29.44F VSB<1/4
DES MOINES     LGT RAIN  42  41  96 E6        29.45F VSB 1/4
GRINNELL*      FOG       38  38  99 E8        29.50S VSB 1/4 WCI  32
KNOXVILLE *    MIX PCPN  41  41 100 E8        29.45F VSB<1/4
MARSHALLTOWN   LGT RAIN  37  37 100 E12       29.47F VSB 3/4 WCI  29
NEWTON *       FOG       41  39  93 E15       29.47F VSB 1/4
PELLA *        FOG       40  40  99 E8        29.49F VSB 1/4
PERRY *        FOG       38  38  98 E7        29.45F VSB 1/4 WCI  33
$$

IAZ004>006-015-016-023>025-035-036-210600-
   NORTH CENTRAL IOWA

CITY           SKY/WX    TMP DP  RH WIND       PRES   REMARKS
ALGONA *       FOG       36  36 100 SE8       29.47F VSB 1/4 WCI  29
CLARION *      FOG       36  36 100 SE14      29.48F VSB 3/4 WCI  27
ESTHERVILLE    FOG       33  33 100 SE7       29.47F VSB 1/4 WCI  27
FORT DODGE *   CLOUDY    36  34  93 E10       29.47F WCI  28
MASON CITY     FOG       34  34 100 SE9       29.51F VSB 1/4 WCI  27
FOREST CITY *  FOG       34  34 100 E7        29.50S VSB 1/4 WCI  28
WEBSTER CITY * LGT RAIN  37 N/A N/A E9        29.45F WCI  31
IOWA FALLS *   FOG       37  36  98 E7        29.50F VSB 1/4 WCI  31
$$

IAZ007>011-017>019-026>030-037>042-050>054-066-210600-
   NORTHEAST IOWA

CITY           SKY/WX    TMP DP  RH WIND       PRES   REMARKS
CEDAR RAPIDS   FOG       38  38 100 E10       29.52S VSB 1/2 WCI  31
CHARLES CITY * FOG       36  36 100 E9        29.53F VSB<1/4 WCI  29
CLINTON *      FOG       39  39 100 E7        29.57F VSB 1/2 WCI  34
DECORAH *      FOG       36  36 100 SE8       29.54R VSB 1/4 WCI  29
DUBUQUE        FOG       37  37 100 NE3       29.56F VSB 1/4
MONTICELLO *   CLOUDY    39  39 100 E3        29.55S FOG
OELWEIN *      FOG       36  36 100 E10       29.53F VSB 1/4 WCI  28
WATERLOO       FOG       36  36 100 E7        29.52F VSB 1/4 WCI  30
$$

IAZ064-065-067-068-078-210600-
   EAST CENTRAL IOWA

CITY           SKY/WX    TMP DP  RH WIND       PRES   REMARKS
DAVENPORT      FOG       41  41 100 SE7       29.57R VSB 1/2
IOWA CITY      FOG       42  42 100 SE6       29.55F VSB 1/2
MUSCATINE *    FOG       43  43 100 SE5       29.55F VSB<1/4
QUAD CITIES    FOG       42  40  92 E6        29.55F VSB 1/2
$$

IAZ062-063-075>077-085>089-095>099-210600-
   SOUTHEAST IOWA

CITY           SKY/WX    TMP DP  RH WIND       PRES   REMARKS
BURLINGTON     HVY RAIN  45  45 100 SE7       29.52F VSB 3/4
FAIRFIELD *    FOG       43  43 100 E8        29.50F VSB<1/4
FORT MADISON * CLOUDY    46  46 100 CALM      29.54R FOG
KEOKUK *       CLOUDY    46 N/A N/A SE5       29.51F HAZE
OSKALOOSA *    LGT RAIN  41  40  98 E10       29.48F VSB 1/4
OTTUMWA        FOG       42  41  96 E8        29.47F VSB 1/4
WASHINGTON *   MIX PCPN  41  41 100 E8        29.53F VSB<1/4
$$

ABBREVIATIONS USED IN REMARKS
   TC - TEMPERATURES IN CELSIUS
  WCI - WIND CHILL INDEX
   HX - HEAT INDEX
  VSB - VISIBILITY
$$





USA.gov is the U.S. government's official web portal to all federal, state and local government web resources and services.